Location: Partizánske
(48.6285°N, 18.3769°E)
Time: 23:56:18
(UTC+02:00)

Transit 4A - All Passes

Search period start: 24 June 2022 00:00
Search period end: 04 July 2022 00:00
Orbit: 864 x 980 km, 66.8° (Epoch: 24 June)

Date Brightness Start Highest point End Pass type
(mag) Time Alt. Az. Time Alt. Az. Time Alt. Az.
24 Jun - 01:26:50 10° NW 01:30:48 17° NNW 01:34:43 10° NNE visible
24 Jun - 03:16:07 10° NNW 03:19:53 16° NNE 03:23:35 10° NE visible
24 Jun - 05:02:36 10° NNW 05:08:16 34° NE 05:13:45 10° ESE daylight
24 Jun - 06:48:56 10° NW 06:55:04 64° WSW 07:00:59 10° SSE daylight
24 Jun - 08:38:21 10° W 08:40:10 11° W 08:41:58 10° WSW daylight
24 Jun - 20:15:32 10° SE 20:19:30 17° ESE 20:23:28 10° ENE daylight
24 Jun - 21:58:33 10° SSW 22:04:59 82° ESE 22:11:23 10° NE visible
24 Jun - 23:46:32 10° W 23:52:04 30° NW 23:57:34 10° NNE visible
25 Jun - 01:37:02 10° NW 01:40:38 15° N 01:44:12 10° NNE visible
25 Jun - 03:25:33 10° NNW 03:29:42 18° NNE 03:33:46 10° ENE visible
25 Jun - 05:11:50 10° NNW 05:17:47 44° NE 05:23:31 10° ESE daylight
25 Jun - 06:58:22 10° NW 07:04:13 45° WSW 07:09:52 10° S daylight
25 Jun - 20:23:25 10° SSE 20:28:27 25° ESE 20:33:29 10° NE daylight
25 Jun - 22:07:52 10° SW 22:14:17 75° NW 22:20:40 10° NNE visible
25 Jun - 23:56:35 10° W 00:01:42 24° NNW 00:06:48 10° NNE visible
26 Jun - 01:47:06 10° NW 01:50:30 15° N 01:53:51 10° NNE visible
26 Jun - 03:34:52 10° NNW 03:39:28 20° NNE 03:43:56 10° ENE visible
26 Jun - 05:21:04 10° NNW 05:27:13 57° NE 05:33:08 10° SE daylight
26 Jun - 07:07:55 10° NW 07:13:16 32° WSW 07:18:28 10° S daylight
26 Jun - 20:31:47 10° S 20:37:29 35° ESE 20:43:09 10° NE daylight
26 Jun - 22:17:21 10° SW 22:23:39 57° NW 22:29:54 10° NNE visible
27 Jun - 00:06:44 10° WNW 00:11:25 21° NNW 00:16:03 10° NNE visible
27 Jun - 01:57:00 10° NNW 02:00:22 15° N 02:03:42 10° NE visible
27 Jun - 03:44:09 10° NNW 03:49:09 24° NNE 03:54:03 10° E visible
27 Jun - 05:30:20 10° NNW 05:36:34 77° NE 05:42:34 10° SE daylight
27 Jun - 07:17:41 10° WNW 07:22:16 22° WSW 07:26:44 10° SSW daylight
27 Jun - 20:40:27 10° S 20:46:34 49° ESE 20:52:40 10° NE daylight
27 Jun - 22:27:00 10° WSW 22:33:05 43° NW 22:39:08 10° NNE visible
28 Jun - 00:16:57 10° WNW 00:21:11 18° NNW 00:25:21 10° NNE visible
28 Jun - 02:06:42 10° NNW 02:10:14 15° N 02:13:44 10° NE visible
28 Jun - 03:53:23 10° NNW 03:58:48 29° NE 04:04:03 10° E visible
28 Jun - 05:39:38 10° NW 05:45:50 79° WSW 05:51:49 10° SSE daylight
28 Jun - 07:27:52 10° WNW 07:31:10 15° WSW 07:34:26 10° SW daylight
28 Jun - 19:07:39 10° SE 19:10:29 13° E 19:13:20 10° ENE daylight
28 Jun - 20:49:23 10° SSW 20:55:44 68° ESE 21:02:04 10° NE daylight
28 Jun - 22:36:50 10° WSW 22:42:36 34° NW 22:48:20 10° NNE visible
29 Jun - 00:27:12 10° NW 00:30:59 16° NNW 00:34:45 10° NNE visible
29 Jun - 02:16:12 10° NNW 02:20:04 16° NNE 02:23:52 10° NE visible
29 Jun - 04:02:36 10° NNW 04:08:21 37° NE 04:13:56 10° ESE visible
29 Jun - 05:49:00 10° NW 05:55:02 57° WSW 06:00:51 10° SSE daylight
29 Jun - 19:15:00 10° SSE 19:19:23 20° ESE 19:23:46 10° ENE daylight
29 Jun - 20:58:33 10° SSW 21:04:59 90° NW 21:11:23 10° NE daylight
29 Jun - 22:46:48 10° W 22:52:11 28° NNW 22:57:33 10° NNE visible
30 Jun - 00:37:21 10° NW 00:40:50 15° N 00:44:18 10° NNE visible
30 Jun - 02:25:36 10° NNW 02:29:52 19° NNE 02:34:03 10° ENE visible
30 Jun - 04:11:50 10° NNW 04:17:51 48° NE 04:23:38 10° ESE daylight
30 Jun - 05:58:28 10° NW 06:04:08 40° WSW 06:09:39 10° S daylight
30 Jun - 19:23:04 10° SSE 19:28:22 28° ESE 19:33:38 10° NE daylight
30 Jun - 21:07:55 10° SW 21:14:18 68° NW 21:20:39 10° NNE daylight
30 Jun - 22:56:53 10° W 23:01:51 23° NNW 23:06:46 10° NNE visible
01 Jul - 00:47:22 10° NNW 00:50:42 14° N 00:54:00 10° NNE visible
01 Jul - 02:34:54 10° NNW 02:39:37 22° NNE 02:44:13 10° ENE visible
01 Jul - 04:21:05 10° NNW 04:27:15 64° NE 04:33:11 10° SE daylight
01 Jul - 06:08:05 10° NW 06:13:11 28° WSW 06:18:09 10° SSW daylight
01 Jul - 19:31:33 10° S 19:37:25 39° ESE 19:43:15 10° NE daylight
01 Jul - 21:17:28 10° WSW 21:23:42 51° NW 21:29:53 10° NNE daylight
01 Jul - 23:07:05 10° WNW 23:11:35 20° NNW 23:16:02 10° NNE visible
02 Jul - 00:57:12 10° NNW 01:00:35 15° N 01:03:55 10° NE visible
02 Jul - 02:44:09 10° NNW 02:49:18 26° NNE 02:54:17 10° E visible
02 Jul - 04:30:21 10° NW 04:36:34 85° NE 04:42:34 10° SE daylight
02 Jul - 06:17:56 10° WNW 06:22:08 20° WSW 06:26:15 10° SSW daylight
02 Jul - 19:40:19 10° SSW 19:46:32 55° ESE 19:52:43 10° NE daylight
02 Jul - 21:27:11 10° WSW 21:33:10 40° NW 21:39:06 10° NNE visible
02 Jul - 23:17:19 10° WNW 23:21:22 17° NNW 23:25:22 10° NNE visible
03 Jul - 01:06:49 10° NNW 01:10:26 15° N 01:14:00 10° NE visible
03 Jul - 02:53:23 10° NNW 02:58:54 32° NE 03:04:15 10° E visible
03 Jul - 04:39:40 10° NW 04:45:49 71° WSW 04:51:44 10° SSE daylight
03 Jul - 06:28:25 10° WNW 06:31:01 13° W 06:33:35 10° SW daylight
03 Jul - 18:06:51 10° SE 18:10:21 15° ESE 18:13:51 10° ENE daylight
03 Jul - 19:49:20 10° SSW 19:55:44 75° ESE 20:02:05 10° NE daylight
03 Jul - 21:37:04 10° W 21:42:43 32° NW 21:48:18 10° NNE visible
03 Jul - 23:27:32 10° NW 23:31:11 16° N 23:34:48 10° NNE visible
